Regional Weather Roundup
Issued by NWS Wakefield, VA

Home | Current Version | Previous Version | Graphics & Text | Print | Product List | Glossary On
Versions: 1 2 3 4 5 6 7 8 9 10 11 12 13 14 15 16 17 18 19 20 21 22 23 24 25 26 27 28 29 30 31 32 33 34 35 36 37 38 39 40 41 42 43 44 45 46 47 48 49 50
103
ASUS41 KAKQ 281915
RWRAKQ

REGIONAL WEATHER ROUNDUP
NATIONAL WEATHER SERVICE WAKEFIELD VA
300 PM EDT TUE MAR 28 2017

Note: "fair" indicates few or no clouds below 12,000 feet with no
significant weather and/or obstructions to visibility. * = Denotes
station may not report precipitation (e.g., rain,snow,etc.),
thunder or fog.

VAZ042-051-052>054-056-282000-
NORTHERN VIRGINIA

CITY           SKY/WX    TMP DP  RH WIND       PRES   REMARKS
WASH NATIONAL  PTSUNNY   72  57  59 N14       29.84F
DULLES         PTSUNNY   69  55  60 N8G18     29.84F
FORT BELVOIR   PTSUNNY   71  55  58 NW10      29.83F
QUANTICO       CLOUDY    67  57  70 VRB6      29.84S
FREDERICKSBRG* PTSUNNY   72  58  60 W9        29.82F
STAFFORD*      CLOUDY    70  57  63 CALM      29.87F
WARRENTON      CLOUDY    72  51  48 N5        29.83F
CULPEPER*      CLOUDY    71  56  59 CALM      29.85S
MANASSAS*        N/A    N/A N/A N/A NE13      29.84F
LEESBURG*      PTSUNNY   68  59  73 N8        29.85F
WINCHESTER     CLOUDY    64  54  68 CALM      29.84F
FRONT ROYAL*   CLOUDY    68  59  73 E6        29.83F
LURAY*         MOCLDY    68  57  68 SE3       29.84F
$$

VAZ048-049-060>072-079>083-282000-
CENTRAL AND SOUTH CENTRAL VIRGINIA

CITY           SKY/WX    TMP DP  RH WIND       PRES   REMARKS
RICHMOND       PTSUNNY   72  58  61 VRB5      29.83F
CHESTERFIELD*  FAIR      73  46  38 SW6       29.85F
PETERSBURG*    PTSUNNY   72  57  59 W5        29.84F
HANOVER        MOSUNNY   73  54  51 W9        29.84F
TAPPAHANNOCK*  MOSUNNY   72  53  50 S9        29.84F
QUINTON*       MOCLDY    71  59  66 W6        29.83F
CHARLOTTSVILLE PTSUNNY   72  53  51 NW3       29.83F
GORDONSVILLE*  PTCLDY    71  55  58 CALM      29.83F
ORANGE*        PTSUNNY   70  54  56 CALM      29.85F
LOUISA*        MOSUNNY   77  57  50 NW5       29.82F
BUMPASS*       MOCLDY    72  55  55 W7        29.83F
FARMVILLE*     CLOUDY    72  59  62 S9        29.84F
CREWE*         CLOUDY    65  65 100 W6        29.85F
FORT PICKETT*  MOCLDY   N/A N/A N/A SW9       29.84F
CHASE CITY*    MOCLDY    73  55  52 W5        29.86F
CLARKSVILLE*   FAIR      75  54  46 W10G16    29.85F
SOUTH HILL*    PTSUNNY   73  58  58 W5        29.90F
LAWRENCEVILLE* CLOUDY    72  57  58 SW6       29.84F
EMPORIA*       CLOUDY    73  55  53 SW9       29.86F
$$

VAZ088>098-282000-
SOUTHEAST VIRGINIA

CITY           SKY/WX    TMP DP  RH WIND       PRES   REMARKS
NORFOLK        PTSUNNY   77  58  51 SW21G28   29.85F
VIRGINIA BEACH PTSUNNY   71  57  61 SW14      29.86F
NORFOLK NAVAL  PTSUNNY   73  57  57 SW12      29.86F
WEST POINT*    CLOUDY    73  58  59 SW9       29.85F
SALUDA*        FAIR      70  60  71 SW3       29.84F
NEWPORT NEWS   PTSUNNY   73  58  59 SW10      29.84F
LANGLEY AFB    PTSUNNY   74  60  61 W8        29.84F
FORT EUSTIS    MOSUNNY   72  59  63 VRB3      29.82F
WILLIAMSBURG*  CLOUDY    73  61  64 CALM      29.85F
HR EXEC AP*    FAIR      73  57  56 SW12G20   29.84F
FRANKLIN*      CLOUDY    72  58  60 SW8       29.85F
US460-WAKEFLD  CLOUDY    75  59  57 W12       29.84F
$$

VAZ020-022-025-037-045-282000-
WEST CENTRAL AND SOUTHWEST VIRGINIA

CITY           SKY/WX    TMP DP  RH WIND       PRES   REMARKS
STAUNTON*      PTSUNNY   68  53  59 SW6       29.87F
WAYNESBORO*    MOCLDY    69  53  57 W8        29.86F
HOT SPRINGS VA CLOUDY    59  41  51 W13G21    29.94S
LYNCHBURG      MOSUNNY   71  53  52 W7        29.87F THUNDER
DANVILLE       LGT RAIN  67  60  78 W9        29.89S
SOUTH BOSTON*  MOCLDY    69  55  59 W18G24    29.88R
MARTINSVILLE   CLOUDY    65  59  80 N3        29.92F
ROANOKE        CLOUDY    68  51  54 NW14      29.91S
BLACKSBURG     MOSUNNY   66  52  60 W10G20    29.96S
DUBLIN*        CLOUDY    65  51  58 W14G22    29.96S
MARION*        CLOUDY    62  51  65 CALM      29.99F
HILLSVILLE*    CLOUDY    59  52  79 W10G20    29.96S
RICHLANDS*     CLOUDY    58  51  77 NW6       29.99F
WISE*          CLOUDY    59  50  72 W9        30.02S
ABINGDON*      CLOUDY    63  54  71 NW9       29.99S
$$

MDZ021>025-VAZ099-100-282000-
SOUTHERN MARYLAND AND THE DELMARVA PENINSULA

CITY           SKY/WX    TMP DP  RH WIND       PRES   REMARKS
PATUXENT RIVER CLOUDY    71  60  68 W9        29.83F
BAY BRIDGE APT CLOUDY    68  59  73 SW5       29.82F
LEONARDTOWN    CLOUDY    70  55  60 SW6       29.83F
DOVER          CLOUDY    57  57 100 E7        29.80F
GEORGETOWN     CLOUDY    68  59  73 SW15      29.84F
EASTON         CLOUDY    66  59  77 SW8       29.87S
CAMBRIDGE      CLOUDY    68  59  73 VRB5G15   29.83F
SALISBURY      PTSUNNY   71  60  68 SW12      29.84F
OCEAN CITY     PTSUNNY   62  55  77 S8G23     29.85F
WALLOPS ISLAND PTSUNNY   69  59  70 S8        29.85F
ACCOMACK*      CLOUDY    71  56  59 SW14      29.85F
$$

NCZ012>017-030>032-282000-
NORTH CENTRAL AND EASTERN NORTH CAROLINA

CITY           SKY/WX    TMP DP  RH WIND       PRES   REMARKS
ROANOKE RAPIDS MOCLDY    72  59  64 S8        29.86F
RALEIGH        PTSUNNY   74  57  55 SW9       29.88F
ELIZABETH CITY CLOUDY    67  61  81 S13       29.88F
AHOSKIE*         N/A     73  62  68 SW3       29.87F
EDENTON*       CLOUDY    70  63  78 SW10      29.90F
CURRITUCK*     CLOUDY    69  59  70 SW10G20   29.88F
KILL DEVIL HLS NOT AVBL
MANTEO         CLOUDY    67  59  75 W10       29.91F
CAPE HATTERAS  PTSUNNY   71  59  65 W7        29.93F
TARBORO*       NOT AVBL
GOLDSBORO      PTSUNNY   73  67  81 NW8       29.88F
WASHINGTON     CLOUDY    68  62  80 SE5       29.89F
GREENVILLE     MOSUNNY   72  63  73 SW12      29.91F
NEW BERN       CLOUDY    67  66  97 E5        29.91F
WILMINGTON     PTSUNNY   80  59  48 S12       29.89F
$$

VAZ048-282000-
ELSEWHERE

CITY           SKY/WX    TMP DP  RH WIND       PRES   REMARKS
HARRISBURG PA  DRIZZLE   53  52  96 SE5       29.84S
BALTIMORE      PTSUNNY   68  58  70 NW13      29.83S
ANNAPOLIS      CLOUDY    66  56  70 NW13      29.82S
ANDREWS AFB    MOSUNNY   70  55  59 W8        29.83F
PHILADELPHIA   CLOUDY    53  50  89 NE5       29.85R
HENDERSON NC   MOSUNNY   72  52  49 W9G16     29.86F
GREENSBORO     PTSUNNY   75  54  47 W17G24    29.89F
ROCKY MOUNT    MOSUNNY   73  63  70 SW8       29.88F
$$

VAZ100-282000-
MARINE

STATION/POSITION TIME  TEMP    WIND        PRES    WAVE   SWELL
                       AIR SEA DIR/SP/G            HT/PER HT/PER
                 (UTC) (F)     (DEG/KT/KT) (MB)    (FT/S) (FT/S)
CAPE MAY NJ      1848   56 45  140/  7/  8 1010.2F
LEWES DE         1848   66 45  240/  4/  7 1010.2F
OCEAN-CITY-INLET 1848   49 45  200/  8/ 10 1011.4F
WACHAPREAGUE VA  1842   71 60  230/ 10/ 15 1010.5F
THOMAS POINT MD  1900   62 47  220/  4/  4   N/A
GOOSES REEF MD   1750   52     170/ 10/ 12 1011.0
COVE POINT MD    1842   58     190/ 12/ 14 1010.7F
SOLOMONS ISLAND  1842   65 48  210/  8/ 12   N/A
BISHOPS HEAD MD  1848   58 54  160/  5/ 10 1011.0F
PINEY POINT MD   1848          360/  2/  3   N/A
POTOMAC MD       1750   58     240/  6/  8 1010.2
CAMBRIDGE MD     1848   67 47  180/  5/ 12 1009.4F
LEWISETTA VA     1842   69 52  280/ 10/ 12 1010.2F
RAPPAHANNOCK LGT 1848          200/ 13/ 14 1011.4F
STINGRAY PT      1750   62     260/ 10/ 10 1012.2
YORK RVR RNG VA  1842   66     260/ 11/ 12 1010.3F
YORKTOWN VA      1842   70 51  230/  7/ 12 1010.2F
JAMESTOWN VA     1750   67     240/  6/  8   N/A
DOMINION TERM VA 1842   64     230/  8/ 10 1011.0F
KIPTOPEKE VA     1848      50  140/  2/  3   N/A
CHES BAY BRIDGE  1842   69 51  250/ 17/ 20 1010.9F
CAPE HENRY VA    1842   72     230/  9/ 14   N/A
WILLOUBY STN VA  1842   66     250/ 10/ 12 1011.9F
S CRANEY ISL VA  1842   73     230/  7/ 13 1010.8F
CAPE CHARLES BUO 1751      49                N/A     3/10   2/11
OFFSHORE WE BUOY 1751      51                N/A     3/10   2/11
DUCK PIER NC     1842   67 48  230/  8/ 11 1012.0F
OREGON INLET NC  1848          210/ 12/ 14   N/A
HATTERAS NC      1842   68 62  250/  9/ 12 1013.6F
CAPE LOOKOUT NC  1900   70     210/ 11/ 16 1013.2F
$$




USA.gov is the U.S. government's official web portal to all federal, state and local government web resources and services.